• In Deutschland
  • Länderverzeichnis
  • Für 7 Tage
  • Wassertemperatur
  • Satellitenkarten
  • Wetterkarte
  • Widgets
  • user-avatar
    Anmelden

    Stündliche Wetter Ellwangen

    Heute, 22 Oktober, Sonntag

    Zeit Temperatur Niederschläge Wind Luftdruck Luftfeuchtigkeit
    00:00 +10°C° 1 mm 4 m/S 719 mmHg 91%
    01:00 +9°C° 0 mm 3 m/S 720 mmHg 90%
    02:00 +9°C° 0,3 mm 3 m/S 720 mmHg 90%
    03:00 +8°C° 0,3 mm 4 m/S 720 mmHg 90%
    04:00 +7°C° 0,3 mm 4 m/S 720 mmHg 89%
    05:00 +7°C° 0,1 mm 4 m/S 720 mmHg 90%
    06:00 +7°C° 0,1 mm 4 m/S 720 mmHg 90%
    07:00 +7°C° 0 mm 3 m/S 719 mmHg 92%
    08:00 +7°C° 0,1 mm 4 m/S 719 mmHg 86%
    09:00 +8°C° 0,1 mm 5 m/S 719 mmHg 81%
    10:00 +8°C° 0,1 mm 6 m/S 720 mmHg 76%
    11:00 +9°C° 0,1 mm 6 m/S 720 mmHg 73%
    12:00 +9°C° 0,1 mm 6 m/S 720 mmHg 69%
    13:00 +9°C° 0 mm 6 m/S 719 mmHg 65%
    14:00 +9°C° 0,1 mm 6 m/S 719 mmHg 68%
    15:00 +8°C° 0,1 mm 5 m/S 719 mmHg 71%
    16:00 +8°C° 0,1 mm 5 m/S 719 mmHg 74%
    17:00 +7°C° 0,1 mm 5 m/S 719 mmHg 79%
    18:00 +6°C° 0,1 mm 4 m/S 720 mmHg 83%
    19:00 +5°C° 0,1 mm 4 m/S 720 mmHg 88%
    20:00 +5°C° 0,1 mm 4 m/S 720 mmHg 88%
    21:00 +5°C° 0,1 mm 4 m/S 720 mmHg 88%
    22:00 +6°C° 0,1 mm 5 m/S 720 mmHg 88%
    23:00 +5°C° 0 mm 4 m/S 720 mmHg 88%

    Morgen, 23 Oktober, Montag

    Zeit Temperatur Niederschläge Wind Luftdruck Luftfeuchtigkeit
    00:00 +5°C° 0 mm 4 m/S 720 mmHg 89%
    01:00 +5°C° 0 mm 4 m/S 721 mmHg 89%
    02:00 +5°C° 0 mm 4 m/S 721 mmHg 90%
    03:00 +5°C° 0 mm 4 m/S 721 mmHg 90%
    04:00 +5°C° 0 mm 4 m/S 721 mmHg 90%
    05:00 +5°C° 0 mm 4 m/S 721 mmHg 90%
    06:00 +5°C° 0 mm 4 m/S 721 mmHg 90%
    07:00 +5°C° 0 mm 4 m/S 721 mmHg 90%
    08:00 +5°C° 0,1 mm 5 m/S 722 mmHg 89%
    09:00 +5°C° 0,1 mm 5 m/S 722 mmHg 88%
    10:00 +6°C° 0,1 mm 5 m/S 722 mmHg 87%
    11:00 +6°C° 0,1 mm 5 m/S 722 mmHg 85%
    12:00 +7°C° 0,1 mm 5 m/S 722 mmHg 83%
    13:00 +7°C° 0,1 mm 5 m/S 722 mmHg 81%
    14:00 +7°C° 0,1 mm 5 m/S 723 mmHg 82%
    15:00 +7°C° 0,1 mm 5 m/S 723 mmHg 83%
    16:00 +7°C° 0,1 mm 5 m/S 723 mmHg 83%
    17:00 +7°C° 0,1 mm 4 m/S 723 mmHg 86%
    18:00 +6°C° 0,1 mm 4 m/S 723 mmHg 88%
    19:00 +7°C° 0,1 mm 3 m/S 724 mmHg 91%
    20:00 +7°C° 0 mm 3 m/S 724 mmHg 92%
    21:00 +7°C° 0 mm 3 m/S 724 mmHg 93%
    22:00 +7°C° 0 mm 3 m/S 724 mmHg 95%
    23:00 +7°C° 0 mm 3 m/S 725 mmHg 95%

    übermorgen, 24 Oktober, Dienstag

    Zeit Temperatur Niederschläge Wind Luftdruck Luftfeuchtigkeit
    00:00 +7°C° 0 mm 3 m/S 725 mmHg 95%
    01:00 +8°C° 0 mm 3 m/S 725 mmHg 94%
    02:00 +7°C° 0 mm 2 m/S 725 mmHg 95%
    03:00 +7°C° 0 mm 2 m/S 725 mmHg 95%
    04:00 +7°C° 0 mm 2 m/S 725 mmHg 95%
    05:00 +7°C° 0,1 mm 2 m/S 725 mmHg 95%
    06:00 +7°C° 0,1 mm 2 m/S 725 mmHg 95%
    07:00 +8°C° 0,1 mm 2 m/S 725 mmHg 94%
    08:00 +8°C° 0,1 mm 3 m/S 725 mmHg 93%
    09:00 +8°C° 0,1 mm 3 m/S 725 mmHg 92%
    10:00 +9°C° 0,1 mm 3 m/S 726 mmHg 92%
    11:00 +10°C° 0 mm 3 m/S 726 mmHg 89%
    12:00 +11°C° 0 mm 3 m/S 726 mmHg 87%
    13:00 +12°C° 0 mm 3 m/S 726 mmHg 84%
    14:00 +12°C° 0 mm 3 m/S 725 mmHg 85%
    15:00 +14°C° 0 mm 2 m/S 725 mmHg 86%
    16:00 +14°C° 0 mm 2 m/S 725 mmHg 87%
    17:00 +13°C° 0 mm 2 m/S 725 mmHg 89%
    18:00 +13°C° 0 mm 2 m/S 726 mmHg 91%
    19:00 +12°C° 0 mm 2 m/S 726 mmHg 93%
    20:00 +12°C° 0 mm 2 m/S 726 mmHg 93%
    21:00 +12°C° 0 mm 2 m/S 726 mmHg 93%
    22:00 +10°C° 0 mm 2 m/S 726 mmHg 94%
    23:00 +10°C° 0 mm 2 m/S 726 mmHg 94%

    25 Oktober, Mittwoch

    Zeit Temperatur Niederschläge Wind Luftdruck Luftfeuchtigkeit
    00:00 +10°C° 0 mm 2 m/S 726 mmHg 94%
    01:00 +10°C° 0 mm 2 m/S 725 mmHg 94%
    02:00 +9°C° 0 mm 2 m/S 725 mmHg 94%
    03:00 +9°C° 0 mm 2 m/S 725 mmHg 94%
    04:00 +9°C° 0 mm 2 m/S 725 mmHg 94%
    05:00 +9°C° 0 mm 2 m/S 725 mmHg 93%
    06:00 +9°C° 0 mm 2 m/S 725 mmHg 93%
    07:00 +10°C° 0 mm 1 m/S 725 mmHg 93%
    08:00 +10°C° 0 mm 2 m/S 725 mmHg 88%
    09:00 +13°C° 0 mm 2 m/S 725 mmHg 84%
    10:00 +14°C° 0 mm 2 m/S 726 mmHg 79%
    11:00 +15°C° 0 mm 2 m/S 726 mmHg 76%
    12:00 +17°C° 0 mm 2 m/S 726 mmHg 73%
    13:00 +18°C° 0 mm 3 m/S 726 mmHg 70%
    14:00 +18°C° 0 mm 2 m/S 725 mmHg 73%
    15:00 +17°C° 0 mm 2 m/S 725 mmHg 76%
    16:00 +17°C° 0 mm 2 m/S 725 mmHg 79%
    17:00 +16°C° 0 mm 1 m/S 725 mmHg 83%
    18:00 +14°C° 0 mm 1 m/S 725 mmHg 87%
    19:00 +13°C° 0 mm 1 m/S 725 mmHg 91%
    20:00 +12°C° 0 mm 1 m/S 725 mmHg 92%
    21:00 +12°C° 0 mm 1 m/S 726 mmHg 92%
    22:00 +12°C° 0 mm 1 m/S 726 mmHg 92%
    23:00 +12°C° 0 mm 1 m/S 726 mmHg 93%

    26 Oktober, Donnerstag

    Zeit Temperatur Niederschläge Wind Luftdruck Luftfeuchtigkeit
    00:00 +11°C° 0 mm 1 m/S 726 mmHg 93%
    01:00 +11°C° 0 mm 1 m/S 726 mmHg 93%
    02:00 +11°C° 0 mm 1 m/S 726 mmHg 94%
    03:00 +10°C° 0 mm 2 m/S 725 mmHg 94%
    04:00 +10°C° 0 mm 2 m/S 725 mmHg 94%
    05:00 +10°C° 0 mm 2 m/S 725 mmHg 93%
    06:00 +9°C° 0 mm 2 m/S 725 mmHg 92%
    07:00 +9°C° 0 mm 2 m/S 725 mmHg 92%
    08:00 +12°C° 0 mm 2 m/S 725 mmHg 85%
    09:00 +13°C° 0 mm 3 m/S 725 mmHg 79%
    10:00 +16°C° 0 mm 3 m/S 725 mmHg 72%
    11:00 +17°C° 0 mm 3 m/S 725 mmHg 69%
    12:00 +18°C° 0 mm 4 m/S 725 mmHg 65%
    13:00 +19°C° 0 mm 4 m/S 725 mmHg 62%
    14:00 +19°C° 0 mm 3 m/S 724 mmHg 65%
    15:00 +18°C° 0 mm 3 m/S 724 mmHg 69%
    16:00 +18°C° 0 mm 3 m/S 724 mmHg 72%
    17:00 +16°C° 0 mm 3 m/S 724 mmHg 77%
    18:00 +14°C° 0 mm 3 m/S 724 mmHg 81%
    19:00 +12°C° 0 mm 3 m/S 723 mmHg 85%
    20:00 +12°C° 0 mm 3 m/S 723 mmHg 86%
    21:00 +12°C° 0 mm 3 m/S 723 mmHg 88%
    22:00 +11°C° 0 mm 3 m/S 723 mmHg 89%
    23:00 +11°C° 0 mm 3 m/S 723 mmHg 89%

    27 Oktober, Freitag

    Zeit Temperatur Niederschläge Wind Luftdruck Luftfeuchtigkeit
    00:00 +11°C° 0 mm 3 m/S 723 mmHg 90%
    01:00 +11°C° 0 mm 3 m/S 722 mmHg 90%
    02:00 +11°C° 0 mm 4 m/S 722 mmHg 90%
    03:00 +12°C° 0 mm 4 m/S 721 mmHg 90%
    04:00 +12°C° 0 mm 5 m/S 721 mmHg 90%
    05:00 +12°C° 0 mm 5 m/S 721 mmHg 89%
    06:00 +12°C° 0 mm 5 m/S 721 mmHg 88%
    07:00 +10°C° 0 mm 6 m/S 720 mmHg 86%
    08:00 +11°C° 0,2 mm 6 m/S 720 mmHg 85%
    09:00 +11°C° 0,2 mm 7 m/S 721 mmHg 84%
    10:00 +11°C° 0,2 mm 7 m/S 721 mmHg 82%
    11:00 +10°C° 1,1 mm 7 m/S 721 mmHg 84%
    12:00 +10°C° 1,1 mm 6 m/S 721 mmHg 85%
    13:00 +9°C° 1,1 mm 6 m/S 721 mmHg 87%
    14:00 +9°C° 0,2 mm 5 m/S 721 mmHg 84%
    15:00 +9°C° 0,2 mm 5 m/S 722 mmHg 82%
    16:00 +10°C° 0,2 mm 4 m/S 722 mmHg 79%
    17:00 +8°C° 0 mm 4 m/S 723 mmHg 82%
    18:00 +7°C° 0 mm 4 m/S 723 mmHg 85%
    19:00 +7°C° 0 mm 3 m/S 723 mmHg 87%
    20:00 +5°C° 0 mm 3 m/S 724 mmHg 88%
    21:00 +5°C° 0 mm 3 m/S 724 mmHg 89%
    22:00 +5°C° 0 mm 3 m/S 724 mmHg 90%
    23:00 +5°C° 0 mm 3 m/S 724 mmHg 89%
    Mehr zeigen